GW0515 Weather Reports


Display with metric or nautical units.
time (UTC)temp
F
wind
direction
speed
MPH
gust
MPH
rain 1hr
in
rain 24hr
in
rain mn
in
humidity
%
barometer
mb
20260507113301 57 251 6.0 10.0 0.00 0.00 0.00 65 1016.1
20260507112800 57 279 6.0 10.0 0.00 0.00 0.00 64 1016.1
20260507112300 58 251 6.0 9.0 0.00 0.00 0.00 66 1016.1
20260507112035 57 259 6.0 9.0 0.00 0.00 0.00 66 1016.1
20260507111257 58 265 7.0 10.0 0.00 0.00 0.00 67 1016.2
20260507110758 57 258 7.0 11.0 0.00 0.00 0.00 69 1016.2
20260507110523 57 246 6.0 11.0 0.00 0.00 0.00 68 1016.2
20260507105759 57 254 7.0 12.0 0.00 0.00 0.00 66 1016.1
20260507105257 57 271 7.0 12.0 0.00 0.00 0.00 66 1016.1
20260507104758 57 289 6.0 11.0 0.00 0.00 0.00 68 1016.1
20260507104257 58 282 6.0 10.0 0.00 0.00 0.00 65 1016.1
20260507103758 57 272 6.0 10.0 0.00 0.00 0.00 65 1016.1
20260507103256 57 263 6.0 10.0 0.00 0.00 0.00 62 1016.1
20260507102752 57 267 6.0 10.0 0.00 0.00 0.00 64 1016.1
20260507101749 57 277 5.0 10.0 0.00 0.00 0.00 62 1016.1
20260507101251 58 270 3.0 10.0 0.00 0.00 0.00 66 1016.1
20260507100748 58 275 2.0 6.0 0.00 0.00 0.00 53 1016.1
20260507100247 58 189 3.0 8.0 0.00 0.00 0.00 55 1016.1
20260507095748 58 189 3.0 8.0 0.00 0.00 0.00 58 1016.1
20260507095514 56 252 4.0 9.0 0.00 0.00 0.00 60 1016.1
20260507094745 57 252 3.0 9.0 0.00 0.00 0.00 57 1016.1
20260507094246 58 159 1.0 4.0 0.00 0.00 0.00 57 1016.0
20260507094016 57 159 3.0 6.0 0.00 0.00 0.00 62 1016.0
20260507093246 57 159 3.0 6.0 0.00 0.00 0.00 61 1016.0
20260507092744 57 157 3.0 5.0 0.00 0.00 0.00 61 1016.0
20260507092244 57 149 2.0 5.0 0.00 0.00 0.00 61 1016.0
20260507091743 57 132 2.0 4.0 0.00 0.00 0.00 62 1016.0
20260507091243 56 130 2.0 4.0 0.00 0.00 0.00 63 1016.0
20260507090743 56 130 2.0 5.0 0.00 0.00 0.00 61 1016.0
20260507090244 55 130 2.0 5.0 0.00 0.00 0.00 64 1016.0
20260507085743 55 130 2.0 5.0 0.00 0.00 0.00 64 1015.9
20260507085244 55 130 3.0 6.0 0.00 0.00 0.00 65 1015.9
20260507084744 55 134 3.0 7.0 0.00 0.00 0.00 62 1015.9
20260507084243 55 117 3.0 7.0 0.00 0.00 0.00 64 1015.7
20260507083743 55 157 3.0 8.0 0.00 0.00 0.00 64 1015.7
20260507083244 55 164 3.0 8.0 0.00 0.00 0.00 63 1015.7
20260507082746 55 167 2.0 7.0 0.00 0.00 0.00 65 1015.6
20260507082244 55 119 3.0 7.0 0.00 0.00 0.00 63 1015.6
20260507081742 55 119 3.0 7.0 0.00 0.00 0.00 66 1015.6
20260507081243 54 118 3.0 7.0 0.00 0.00 0.00 64 1015.6
20260507080744 54 108 3.0 7.0 0.00 0.00 0.00 66 1015.6
20260507080237 54 118 3.0 5.0 0.00 0.00 0.00 66 1015.6
20260507075733 54 111 3.0 7.0 0.00 0.00 0.00 70 1015.5
20260507075233 54 150 3.0 7.0 0.00 0.00 0.00 68 1015.5
20260507075001 53 107 3.0 7.0 0.00 0.00 0.00 70 1015.5
20260507074232 53 146 4.0 8.0 0.00 0.00 0.00 71 1015.3
20260507073731 53 125 3.0 8.0 0.00 0.00 0.00 69 1015.3
20260507073230 53 128 3.0 7.0 0.00 0.00 0.00 74 1015.3
20260507072731 52 116 4.0 7.0 0.00 0.00 0.00 76 1015.3
20260507072231 52 94 5.0 9.0 0.00 0.00 0.00 76 1015.3
20260507071730 52 132 4.0 9.0 0.00 0.00 0.00 76 1015.3
20260507071230 51 68 4.0 8.0 0.00 0.00 0.00 77 1015.2
20260507070730 51 113 4.0 8.0 0.00 0.00 0.00 77 1015.2
20260507070500 51 93 3.0 7.0 0.00 0.00 0.00 79 1015.2
20260507065730 51 53 3.0 5.0 0.00 0.00 0.00 80 1015.1
20260507065059 50 53 2.0 5.0 0.00 0.00 0.00 82 1015.1
20260507063945 49 53 3.0 5.0 0.00 0.00 0.00 83 1015.1
20260507063221 49 53 3.0 5.0 0.00 0.00 0.00 84 1015.1
20260507062720 49 53 2.0 4.0 0.00 0.00 0.00 85 1015.1
20260507062219 48 53 2.0 4.0 0.00 0.00 0.00 86 1015.1
20260507061718 48 53 3.0 5.0 0.00 0.00 0.00 87 1015.1
20260507061218 47 53 3.0 5.0 0.00 0.00 0.00 87 1015.0
20260507060715 47 53 2.0 4.0 0.00 0.00 0.00 88 1015.0
20260507060215 46 53 3.0 5.0 0.00 0.00 0.00 88 1015.0
20260507055951 46 53 3.0 5.0 0.00 0.00 0.00 89 1014.9
20260507055214 45 53 3.0 5.0 0.00 0.00 0.00 90 1014.9
20260507054714 45 53 3.0 5.0 0.00 0.00 0.00 91 1014.9
20260507054214 44 53 3.0 5.0 0.00 0.00 0.00 92 1014.7
20260507053715 44 53 3.0 5.0 0.00 0.00 0.00 92 1014.7
20260507053214 43 53 3.0 5.0 0.00 0.00 0.00 93 1014.7
20260507052715 43 53 3.0 5.0 0.00 0.00 0.00 93 1014.6
20260507052216 42 53 2.0 4.0 0.00 0.00 0.00 94 1014.6
20260507051717 41 53 2.0 4.0 0.00 0.00 0.00 94 1014.6
20260507051212 41 53 2.0 4.0 0.00 0.00 0.00 93 1014.5
20260507050944 40 53 2.0 3.0 0.00 0.00 0.00 93 1014.5
20260507050208 40 53 2.0 3.0 0.00 0.00 0.00 93 1014.5
20260507045709 39 53 2.0 3.0 0.00 0.00 0.00 93 1014.5
20260507045206 39 53 2.0 3.0 0.00 0.00 0.00 93 1014.5
20260507044706 39 53 2.0 3.0 0.00 0.00 0.00 93 1014.5
20260507044207 39 53 2.0 3.0 0.00 0.00 0.00 93 1014.2
20260507043937 39 53 2.0 3.0 0.00 0.00 0.00 93 1014.2
20260507043203 39 53 2.0 3.0 0.00 0.00 0.00 93 1014.2
20260507042703 38 53 2.0 3.0 0.00 0.00 0.00 93 1014.0
20260507042443 38 53 2.0 3.0 0.00 0.00 0.00 92 1014.0
20260507041702 38 53 2.0 3.0 0.00 0.00 0.00 92 1014.0
20260507041434 38 53 2.0 3.0 0.00 0.00 0.00 92 1014.0
20260507040951 38 53 2.0 3.0 0.00 0.00 0.00 92 1014.0
20260507040436 38 53 2.0 3.0 0.00 0.00 0.00 92 1014.0
20260507035702 38 53 2.0 3.0 0.00 0.00 0.00 92 1014.0
20260507035202 38 53 2.0 3.0 0.00 0.00 0.00 92 1014.0
20260507034702 38 53 2.0 3.0 0.00 0.00 0.00 92 1014.0
20260507034202 38 53 2.0 3.0 0.00 0.00 0.00 92 1013.7
20260507033701 38 53 2.0 3.0 0.00 0.00 0.00 92 1013.7
20260507033202 38 53 2.0 3.0 0.00 0.00 0.00 92 1013.7
20260507032704 39 53 2.0 3.0 0.00 0.00 0.00 92 1013.6
20260507032439 39 53 2.0 3.0 0.00 0.00 0.00 92 1013.6
20260507031938 39 53 2.0 3.0 0.00 0.00 0.00 92 1013.6
20260507031201 39 53 2.0 3.0 0.00 0.00 0.00 92 1013.5
20260507030702 39 53 2.0 3.0 0.00 0.00 0.00 92 1013.5
20260507030435 40 53 2.0 4.0 0.00 0.00 0.00 91 1013.5
20260507025655 40 53 3.0 4.0 0.00 0.00 0.00 91 1013.5
20260507025145 40 53 3.0 4.0 0.00 0.00 0.00 91 1013.5
20260507024642 40 53 3.0 6.0 0.00 0.00 0.00 91 1013.5
20260507024142 40 53 3.0 6.0 0.00 0.00 0.00 91 1013.2
20260507023642 40 53 2.0 4.0 0.00 0.00 0.00 91 1013.2
20260507023413 41 53 2.0 4.0 0.00 0.00 0.00 91 1013.2
20260507022640 41 53 2.0 5.0 0.00 0.00 0.00 91 1013.2
20260507022410 41 53 3.0 5.0 0.00 0.00 0.00 91 1013.2
20260507021638 41 53 3.0 4.0 0.00 0.00 0.00 91 1013.2
20260507021136 41 53 3.0 4.0 0.00 0.00 0.00 91 1013.1
20260507020925 41 53 3.0 5.0 0.00 0.00 0.00 91 1013.1
20260507020135 41 53 4.0 6.0 0.00 0.00 0.00 91 1013.1
20260507015632 41 53 4.0 6.0 0.00 0.00 0.00 90 1013.0
20260507015130 41 53 4.0 5.0 0.00 0.00 0.00 90 1013.0
20260507014642 41 101 3.0 5.0 0.00 0.00 0.00 90 1013.0
20260507014138 41 108 2.0 3.0 0.00 0.00 0.00 90 1012.9
20260507013640 41 108 2.0 3.0 0.00 0.00 0.00 90 1012.9
20260507013135 41 108 1.0 3.0 0.00 0.00 0.00 90 1012.9
20260507012638 42 108 1.0 3.0 0.00 0.00 0.00 90 1012.8
20260507012130 42 108 2.0 3.0 0.00 0.00 0.00 90 1012.8
20260507011903 42 108 2.0 3.0 0.00 0.00 0.00 90 1012.8
20260507010628 42 108 3.0 4.0 0.00 0.00 0.00 89 1012.7
20260507010421 42 108 3.0 4.0 0.00 0.00 0.00 89 1012.7
20260507005628 42 108 3.0 4.0 0.00 0.00 0.00 89 1012.5
20260507005400 42 108 2.0 4.0 0.00 0.00 0.00 89 1012.5
20260507004628 42 108 3.0 4.0 0.00 0.00 0.00 89 1012.5
20260507004352 42 108 3.0 4.0 0.00 0.00 0.00 89 1012.5
20260507003627 42 108 3.0 4.0 0.00 0.00 0.00 89 1012.5
20260507003128 42 108 3.0 7.0 0.00 0.00 0.00 89 1012.5
20260507002629 42 108 3.0 7.0 0.00 0.00 0.00 89 1012.5
20260507002357 41 107 2.0 4.0 0.00 0.00 0.00 88 1012.5
20260507001622 42 107 2.0 3.0 0.00 0.00 0.00 88 1012.5
20260507001123 42 107 2.0 3.0 0.00 0.00 0.00 88 1012.5
20260507000622 42 107 2.0 3.0 0.00 0.00 0.00 92 1012.5
20260507000350 42 107 2.0 5.0 0.00 0.00 0.00 87 1012.5
20260506235622 42 107 3.0 5.0 0.00 0.00 0.00 87 1012.5
20260506235122 42 107 3.0 5.0 0.00 0.00 0.00 87 1012.5
20260506234621 42 107 4.0 5.0 0.00 0.00 0.00 86 1012.5
20260506234337 43 107 4.0 5.0 0.00 0.00 0.00 86 1012.5
20260506233614 43 107 4.0 5.0 0.00 0.00 0.00 86 1012.5
20260506233102 43 107 4.0 7.0 0.00 0.00 0.00 86 1012.5
20260506232604 44 107 4.0 7.0 0.00 0.00 0.00 86 1012.4
20260506231552 44 111 4.0 7.0 0.00 0.00 0.00 86 1012.4
20260506231052 43 108 4.0 7.0 0.00 0.00 0.00 86 1012.4
20260506230550 43 115 3.0 7.0 0.00 0.00 0.00 85 1012.4
20260506230049 43 110 3.0 7.0 0.00 0.00 0.00 85 1012.4
20260506225814 43 110 4.0 7.0 0.00 0.00 0.00 85 1012.4
20260506225050 42 105 3.0 6.0 0.00 0.00 0.00 84 1012.4
20260506224549 42 77 3.0 5.0 0.00 0.00 0.00 83 1012.4
20260506224315 42 54 3.0 3.0 0.00 0.00 0.00 82 1012.2
20260506223813 42 54 2.0 3.0 0.00 0.00 0.00 82 1012.2
20260506223048 42 53 2.0 3.0 0.00 0.00 0.00 82 1012.2
20260506222547 43 53 2.0 3.0 0.00 0.00 0.00 81 1012.1
20260506222045 43 53 2.0 3.0 0.00 0.00 0.00 81 1012.1
20260506221545 43 53 2.0 3.0 0.00 0.00 0.00 80 1012.1
20260506221044 43 53 3.0 4.0 0.00 0.00 0.00 80 1012.1
20260506220543 44 54 3.0 4.0 0.00 0.00 0.00 80 1012.1
20260506220319 44 53 2.0 3.0 0.00 0.00 0.00 80 1012.1
20260506215816 44 54 2.0 3.0 0.00 0.00 0.00 80 1012.0
20260506215046 44 53 2.0 3.0 0.00 0.00 0.00 79 1012.0
20260506214544 44 53 2.0 3.0 0.00 0.00 0.00 79 1012.0
20260506214311 44 54 2.0 3.0 0.00 0.00 0.00 79 1011.9
20260506213543 44 53 3.0 4.0 0.00 0.00 0.00 78 1011.9
20260506213040 44 53 3.0 4.0 0.00 0.00 0.00 78 1011.9
20260506212533 44 53 3.0 4.0 0.00 0.00 0.00 77 1011.6
20260506212037 44 53 3.0 3.0 0.00 0.00 0.00 77 1011.6
20260506211534 44 54 2.0 3.0 0.00 0.00 0.00 77 1011.6
20260506211032 45 54 2.0 3.0 0.00 0.00 0.00 76 1011.5
20260506210532 45 54 2.0 2.0 0.00 0.00 0.00 76 1011.5
20260506210046 45 54 2.0 2.0 0.00 0.00 0.00 75 1011.5
20260506205532 45 54 1.0 2.0 0.00 0.00 0.00 75 1011.5
20260506205033 46 54 1.0 2.0 0.00 0.00 0.00 75 1011.5
20260506204527 46 53 1.0 2.0 0.00 0.00 0.00 75 1011.5
20260506204029 46 54 1.0 2.0 0.00 0.00 0.00 74 1011.5
20260506203524 46 53 1.0 3.0 0.00 0.00 0.00 74 1011.5
20260506203305 46 53 1.0 3.0 0.00 0.00 0.00 73 1011.5
20260506202523 47 54 1.0 3.0 0.00 0.00 0.00 72 1011.4
20260506202022 47 54 1.0 2.0 0.00 0.00 0.00 72 1011.4
20260506201516 47 54 2.0 3.0 0.00 0.00 0.00 72 1011.4
20260506201010 47 54 2.0 3.0 0.00 0.00 0.00 73 1011.3
20260506200510 48 54 2.0 3.0 0.00 0.00 0.00 72 1011.3
20260506200244 48 53 1.0 3.0 0.00 0.00 0.00 71 1011.3
20260506195507 49 53 1.0 2.0 0.00 0.00 0.00 70 1011.0
20260506195011 49 54 1.0 3.0 0.00 0.00 0.00 69 1011.0
20260506194508 49 53 2.0 3.0 0.00 0.00 0.00 68 1011.0
20260506194013 50 53 2.0 4.0 0.00 0.00 0.00 68 1011.0
20260506193507 50 54 3.0 4.0 0.00 0.00 0.00 67 1011.0
20260506193010 50 54 3.0 4.0 0.00 0.00 0.00 67 1011.0
20260506192507 51 54 3.0 5.0 0.00 0.00 0.00 67 1010.8
20260506192010 51 54 3.0 5.0 0.00 0.00 0.00 66 1010.8
20260506191509 51 54 3.0 5.0 0.00 0.00 0.00 66 1010.8
20260506191011 52 53 3.0 5.0 0.00 0.00 0.00 66 1010.5
20260506190507 52 53 3.0 5.0 0.00 0.00 0.00 66 1010.5
20260506190017 52 54 3.0 4.0 0.00 0.00 0.00 66 1010.5
20260506185507 53 54 2.0 4.0 0.00 0.00 0.00 66 1010.4
20260506185011 53 54 3.0 4.0 0.00 0.00 0.00 65 1010.4
20260506184507 53 53 3.0 5.0 0.00 0.00 0.00 64 1010.4
20260506184012 54 54 4.0 6.0 0.00 0.00 0.00 63 1010.4
20260506183506 54 54 4.0 7.0 0.00 0.00 0.00 61 1010.4
20260506183011 54 55 4.0 7.0 0.00 0.00 0.00 56 1010.4
20260506182504 55 57 4.0 8.0 0.00 0.00 0.00 56 1010.0
20260506182009 56 59 4.0 8.0 0.00 0.00 0.00 56 1010.0
20260506181504 56 55 4.0 7.0 0.00 0.00 0.00 56 1010.0
20260506181010 56 56 4.0 7.0 0.00 0.00 0.00 56 1010.0
20260506180502 56 67 5.0 9.0 0.00 0.00 0.00 56 1010.0
20260506180012 56 74 4.0 9.0 0.00 0.00 0.00 56 1010.0
20260506175503 56 71 5.0 9.0 0.00 0.00 0.00 56 1009.9
20260506175010 56 62 5.0 8.0 0.00 0.00 0.00 57 1009.9
20260506174503 56 63 5.0 8.0 0.00 0.00 0.00 56 1009.9
20260506174001 56 58 5.0 8.0 0.00 0.00 0.00 56 1009.9
20260506173502 56 60 5.0 9.0 0.00 0.00 0.00 56 1009.9
20260506173004 56 63 5.0 10.0 0.00 0.00 0.00 54 1009.9
20260506172501 56 63 5.0 10.0 0.00 0.00 0.00 55 1009.8
20260506172002 57 60 5.0 9.0 0.00 0.00 0.00 56 1009.8
20260506171502 57 64 6.0 10.0 0.00 0.00 0.00 55 1009.8
20260506171003 57 64 6.0 10.0 0.00 0.00 0.00 55 1009.7
20260506170502 57 59 6.0 10.0 0.00 0.00 0.00 54 1009.7
20260506165955 57 68 6.0 10.0 0.00 0.00 0.00 55 1009.7
20260506165457 58 64 5.0 9.0 0.00 0.00 0.00 56 1009.6
20260506164955 58 57 5.0 9.0 0.00 0.00 0.00 56 1009.6
20260506164735 57 63 3.0 8.0 0.00 0.00 0.00 56 1009.6
20260506163954 57 16 3.0 8.0 0.00 0.00 0.00 62 1009.6
20260506163451 56 28 3.0 8.0 0.00 0.00 0.00 63 1009.6
20260506162952 56 13 4.0 10.0 0.00 0.00 0.00 69 1009.6
20260506162452 56 333 5.0 10.0 0.00 0.00 0.00 68 1009.7
20260506161950 57 334 6.0 11.0 0.00 0.00 0.00 68 1009.7
20260506161449 57 5 7.0 12.0 0.00 0.00 0.00 67 1009.7
20260506160949 57 355 6.0 12.0 0.00 0.00 0.00 64 1009.7
20260506160447 57 319 7.0 14.0 0.00 0.00 0.00 67 1009.7
20260506155946 57 25 8.0 14.0 0.00 0.00 0.00 67 1009.7
20260506155436 57 342 8.0 14.0 0.00 0.00 0.00 68 1009.6
20260506154936 57 346 7.0 14.0 0.00 0.00 0.00 68 1009.6
20260506154435 57 355 7.0 11.0 0.00 0.00 0.00 66 1009.6
20260506153933 57 355 7.0 14.0 0.00 0.00 0.00 65 1009.6
20260506153433 58 346 7.0 14.0 0.00 0.00 0.00 66 1009.6
20260506153225 58 348 6.0 12.0 0.00 0.00 0.00 65 1009.6
20260506152705 58 187 5.0 12.0 0.00 0.00 0.00 63 1009.6
20260506151931 59 343 6.0 13.0 0.00 0.00 0.00 63 1009.6
20260506151430 59 311 7.0 14.0 0.00 0.00 0.00 57 1009.6
20260506150929 59 351 7.0 14.0 0.00 0.00 0.00 62 1009.5
20260506150429 59 349 6.0 9.0 0.00 0.00 0.00 50 1009.5
20260506145930 59 23 6.0 10.0 0.00 0.00 0.00 53 1009.5
20260506145431 59 11 5.0 10.0 0.00 0.00 0.00 55 1009.5
20260506145240 59 12 4.0 8.0 0.00 0.00 0.00 62 1009.5
20260506144437 58 309 5.0 10.0 0.00 0.00 0.00 54 1009.5
20260506143430 58 11 5.0 12.0 0.00 0.00 0.00 55 1009.5
20260506142929 59 346 7.0 13.0 0.00 0.00 0.00 52 1009.5
20260506142430 59 0 7.0 13.0 0.00 0.00 0.00 53 1009.6
20260506141929 58 348 7.0 11.0 0.00 0.00 0.00 55 1009.6
20260506141428 58 24 9.0 15.0 0.00 0.00 0.00 56 1009.6
20260506140926 58 355 9.0 16.0 0.00 0.00 0.00 57 1009.6
20260506140427 59 5 8.0 16.0 0.00 0.00 0.00 57 1009.6
20260506135926 59 355 8.0 15.0 0.00 0.00 0.00 58 1009.6
20260506135427 59 355 7.0 15.0 0.00 0.00 0.00 55 1009.8
20260506135218 59 5 4.0 11.0 0.00 0.00 0.00 59 1009.8
20260506134704 58 15 6.0 12.0 0.00 0.00 0.00 58 1009.8
20260506133924 58 36 7.0 12.0 0.00 0.00 0.00 57 1009.8
20260506133418 58 46 8.0 14.0 0.00 0.00 0.00 58 1009.8
20260506132908 59 19 9.0 14.0 0.00 0.00 0.00 58 1009.8
20260506132408 59 38 7.0 13.0 0.00 0.00 0.00 58 1009.8
20260506131909 60 41 7.0 13.0 0.00 0.00 0.00 54 1009.8
20260506131408 60 37 7.0 10.0 0.00 0.00 0.00 56 1009.8
20260506130909 59 19 7.0 10.0 0.00 0.00 0.00 55 1009.8
20260506130408 59 36 7.0 12.0 0.00 0.00 0.00 57 1009.8
20260506125911 59 37 8.0 13.0 0.00 0.00 0.00 58 1009.8
20260506125408 59 57 8.0 13.0 0.00 0.00 0.00 58 1009.8
20260506124910 59 33 8.0 13.0 0.00 0.00 0.00 55 1009.8
20260506124410 58 47 9.0 12.0 0.00 0.00 0.00 57 1009.8
20260506124158 58 40 8.0 12.0 0.00 0.00 0.00 59 1009.8
20260506123412 58 48 7.0 11.0 0.00 0.00 0.00 60 1009.8
20260506123146 58 34 8.0 12.0 0.00 0.00 0.00 59 1009.8
20260506122412 58 59 8.0 13.0 0.00 0.00 0.00 57 1009.8
20260506121911 58 41 8.0 14.0 0.00 0.00 0.00 58 1009.8
20260506121435 59 80 8.0 14.0 0.00 0.00 0.00 56 1009.9
20260506120407 58 36 8.0 15.0 0.00 0.00 0.00 59 1009.9
20260506115906 58 340 8.0 15.0 0.00 0.00 0.00 59 1009.9
20260506115359 58 38 7.0 15.0 0.00 0.00 0.00 60 1009.9
20260506114859 58 38 7.0 15.0 0.00 0.00 0.00 58 1009.9
20260506114355 59 9 9.0 16.0 0.00 0.00 0.00 55 1009.9
20260506113857 60 348 9.0 17.0 0.00 0.00 0.00 57 1009.9